OVO3359 ZGHA-ZGSD

Flight info

Callsign OVO3359
Flight time N/A
Altitude 35100
Route UBM7X UBMOG W615 IDAXI R473 NOLON W90 POU W7 SAREX
Aircraft A319/M-SDE3FGHIRWY/LB1

Departure

Time 2026-04-22 12:27
Airport Changsha Huanghua International Airport (ZGHA)

Arrival

Time N/A
Airport Zhuhai Jinwan Airport (ZGSD)
Time Latitude Longitude Altitude Speed Heading
2026-04-22 11:43 28.19076 113.21571 214 ft 0 kts 223°
2026-04-22 12:00 28.19077 113.21571 214 ft 0 kts 223°
2026-04-22 12:18 28.19085 113.21580 186 ft 4 kts 223°
2026-04-22 12:18 28.19105 113.21601 222 ft 4 kts 223°
2026-04-22 12:18 28.19124 113.21622 214 ft 4 kts 221°
2026-04-22 12:19 28.19145 113.21641 215 ft 4 kts 215°
2026-04-22 12:19 28.19168 113.21656 221 ft 4 kts 196°
2026-04-22 12:19 28.19194 113.21660 223 ft 4 kts 181°
2026-04-22 12:19 28.19213 113.21660 215 ft 0 kts 178°
2026-04-22 12:21 28.19200 113.21661 215 ft 4 kts 174°
2026-04-22 12:22 28.19167 113.21683 220 ft 7 kts 131°
2026-04-22 12:22 28.19158 113.21733 214 ft 6 kts 97°
2026-04-22 12:22 28.19122 113.21773 219 ft 9 kts 162°
2026-04-22 12:22 28.19044 113.21781 214 ft 13 kts 177°
2026-04-22 12:23 28.18936 113.21788 214 ft 17 kts 176°
2026-04-22 12:23 28.18823 113.21795 214 ft 15 kts 176°
2026-04-22 12:23 28.18706 113.21802 217 ft 16 kts 177°
2026-04-22 12:23 28.18590 113.21809 217 ft 19 kts 177°
2026-04-22 12:24 28.18449 113.21817 213 ft 22 kts 177°
2026-04-22 12:24 28.18299 113.21826 218 ft 18 kts 177°
2026-04-22 12:24 28.18166 113.21834 214 ft 20 kts 176°
2026-04-22 12:24 28.18043 113.21843 214 ft 18 kts 175°
2026-04-22 12:25 28.17931 113.21851 216 ft 16 kts 176°
2026-04-22 12:25 28.17815 113.21858 214 ft 15 kts 177°
2026-04-22 12:25 28.17750 113.21894 221 ft 10 kts 123°
2026-04-22 12:25 28.17743 113.21978 216 ft 11 kts 80°
2026-04-22 12:26 28.17798 113.22043 218 ft 14 kts 11°
2026-04-22 12:26 28.17895 113.22041 223 ft 15 kts 349°
2026-04-22 12:26 28.18013 113.22032 217 ft 29 kts 358°
2026-04-22 12:26 28.18415 113.22007 224 ft 86 kts 356°
2026-04-22 12:27 28.19190 113.21961 221 ft 136 kts 357°
2026-04-22 12:27 28.20247 113.21889 488 ft 156 kts 356°
2026-04-22 12:27 28.21327 113.21809 1144 ft 155 kts 355°
2026-04-22 12:27 28.22400 113.21740 1848 ft 155 kts 355°
2026-04-22 12:28 28.23537 113.21668 2243 ft 175 kts 356°
2026-04-22 12:28 28.24835 113.21589 2585 ft 197 kts 357°
2026-04-22 12:28 28.26290 113.21500 3008 ft 222 kts 357°
2026-04-22 12:28 28.27873 113.21405 3901 ft 222 kts 357°
2026-04-22 12:29 28.29364 113.21316 5246 ft 210 kts 356°
2026-04-22 12:29 28.30831 113.21229 6106 ft 213 kts 355°
2026-04-22 12:29 28.32329 113.21139 6849 ft 219 kts 354°
2026-04-22 12:29 28.33865 113.21046 7612 ft 223 kts 353°
2026-04-22 12:30 28.37034 113.21029 9100 ft 241 kts 12°
2026-04-22 12:30 28.38450 113.22145 9811 ft 262 kts 50°
2026-04-22 12:30 28.39164 113.24094 10453 ft 275 kts 78°
2026-04-22 12:31 28.39357 113.26279 11115 ft 281 kts 89°
2026-04-22 12:31 28.39348 113.28523 11793 ft 287 kts 92°
2026-04-22 12:31 28.39300 113.30809 12475 ft 292 kts 92°
2026-04-22 12:31 28.39280 113.33143 13153 ft 298 kts 91°
2026-04-22 12:32 28.39307 113.35518 13818 ft 304 kts 90°
2026-04-22 12:32 28.39475 113.40386 15005 ft 313 kts 88°
2026-04-22 12:32 28.39466 113.42869 15562 ft 316 kts 104°
2026-04-22 12:33 28.38693 113.45156 16096 ft 309 kts 132°
2026-04-22 12:33 28.37210 113.46849 16455 ft 304 kts 158°
2026-04-22 12:33 28.35252 113.47697 16591 ft 303 kts 182°
2026-04-22 12:33 28.33109 113.47835 16716 ft 318 kts 187°
2026-04-22 12:34 28.30851 113.47927 16843 ft 338 kts 186°
2026-04-22 12:34 28.28407 113.48041 16961 ft 357 kts 186°
2026-04-22 12:34 28.25865 113.48178 17083 ft 374 kts 185°
2026-04-22 12:34 28.23228 113.48333 17350 ft 385 kts 185°
2026-04-22 12:35 28.20570 113.48498 17811 ft 390 kts 185°
2026-04-22 12:35 28.17809 113.48742 18315 ft 400 kts 178°
2026-04-22 12:35 28.15101 113.49691 18753 ft 418 kts 161°
2026-04-22 12:35 28.12662 113.51522 19203 ft 436 kts 144°
2026-04-22 12:36 28.10713 113.54219 19662 ft 452 kts 124°
2026-04-22 12:36 28.09330 113.57443 20129 ft 458 kts 118°
2026-04-22 12:36 28.07950 113.60717 20589 ft 459 kts 124°
2026-04-22 12:36 28.06133 113.63654 21011 ft 453 kts 137°
2026-04-22 12:37 28.03844 113.66052 21436 ft 445 kts 150°
2026-04-22 12:37 28.01217 113.67824 21855 ft 436 kts 163°
2026-04-22 12:37 27.98380 113.68933 22269 ft 427 kts 175°
2026-04-22 12:37 27.95466 113.69384 22623 ft 418 kts 186°
2026-04-22 12:38 27.92581 113.69237 22995 ft 414 kts 193°
2026-04-22 12:38 27.89699 113.68967 23372 ft 417 kts 193°
2026-04-22 12:38 27.87781 113.68792 23615 ft 419 kts 193°
2026-04-22 12:38 27.83886 113.68445 24023 ft 422 kts 193°
2026-04-22 12:39 27.80951 113.68187 24362 ft 423 kts 193°
2026-04-22 12:39 27.76053 113.67757 24913 ft 426 kts 193°
2026-04-22 12:39 27.73092 113.67496 25228 ft 428 kts 193°
2026-04-22 12:40 27.70127 113.67232 25531 ft 429 kts 193°
2026-04-22 12:40 27.67141 113.66964 25826 ft 431 kts 193°
2026-04-22 12:40 27.64139 113.66732 26129 ft 437 kts 190°
2026-04-22 12:40 27.61073 113.66794 26434 ft 442 kts 187°
2026-04-22 12:41 27.56991 113.66912 26844 ft 444 kts 188°
2026-04-22 12:41 27.54908 113.66970 27051 ft 445 kts 188°